FW3090 Weather Reports


time (UTC)temp
C
wind
direction
speed
KPH
gust
KPH
rain 1hr
cm
rain 24hr
cm
rain mn
cm
humidity
%
barometer
mb
20260504012017 16 298 0.0 3.2 0.00 0.00 0.00 40 1004.0
20260504011517 16 298 1.6 4.8 0.00 0.00 0.00 39 1003.8
20260504011015 17 298 1.6 4.8 0.00 0.00 0.00 34 1003.7
20260504010515 17 298 1.6 4.8 0.00 0.00 0.00 35 1003.8
20260504010014 17 298 3.2 6.4 0.00 0.00 0.00 34 1003.8
20260504005511 18 298 4.8 6.4 0.00 0.00 0.00 33 1003.7
20260504005009 18 298 4.8 6.4 0.00 0.00 0.00 32 1003.7
20260504004507 19 298 4.8 8.0 0.00 0.00 0.00 32 1003.7
20260504004004 20 298 6.4 11.3 0.00 0.00 0.00 30 1003.6
20260504003503 20 296 6.4 14.5 0.00 0.00 0.00 30 1003.7
20260504003002 20 299 9.7 17.7 0.00 0.00 0.00 29 1003.6
20260504002459 20 302 11.3 17.7 0.00 0.00 0.00 28 1003.6
20260504001959 20 309 11.3 20.9 0.00 0.00 0.00 28 1003.5
20260504001459 21 309 11.3 20.9 0.00 0.00 0.00 27 1003.6
20260504000959 21 303 12.9 19.3 0.00 0.00 0.00 29 1003.4
20260504000459 21 305 12.9 20.9 0.00 0.00 0.00 30 1003.4
20260503235952 21 311 11.3 20.9 0.00 0.00 0.00 30 1003.4
20260503235447 21 302 11.3 17.7 0.00 0.00 0.00 31 1003.4
20260503234940 21 290 11.3 19.3 0.00 0.00 0.00 31 1003.4
20260503234703 21 297 9.7 19.3 0.00 0.00 0.00 30 1003.4
20260503233929 21 302 8.0 16.1 0.00 0.00 0.00 31 1003.4
20260503233423 21 294 6.4 14.5 0.00 0.00 0.00 30 1003.4
20260503232916 21 294 6.4 14.5 0.00 0.00 0.00 31 1003.5
20260503232411 21 294 6.4 14.5 0.00 0.00 0.00 30 1003.5
20260503231905 21 296 6.4 17.7 0.00 0.00 0.00 30 1003.6
20260503231359 21 24 6.4 17.7 0.00 0.00 0.00 29 1003.6
20260503230853 21 264 8.0 20.9 0.00 0.00 0.00 30 1003.6
20260503230348 21 334 9.7 20.9 0.00 0.00 0.00 33 1003.6
20260503225848 21 308 9.7 22.5 0.00 0.00 0.00 30 1003.5
20260503225348 21 331 9.7 22.5 0.00 0.00 0.00 31 1003.6
20260503224848 21 301 6.4 20.9 0.00 0.00 0.00 30 1003.5
20260503224348 21 287 8.0 17.7 0.00 0.00 0.00 31 1003.4
20260503223846 22 324 9.7 22.5 0.00 0.00 0.00 32 1003.5
20260503223346 22 313 9.7 22.5 0.00 0.00 0.00 30 1003.5
20260503222846 22 286 8.0 20.9 0.00 0.00 0.00 29 1003.4
20260503222345 22 279 8.0 20.9 0.00 0.00 0.00 32 1003.4
20260503221843 22 32 11.3 20.9 0.00 0.00 0.00 28 1003.4
20260503221341 22 323 14.5 24.1 0.00 0.00 0.00 29 1003.4
20260503220838 22 304 14.5 24.1 0.00 0.00 0.00 28 1003.3
20260503220339 22 293 12.9 22.5 0.00 0.00 0.00 29 1003.5
20260503220100 22 311 14.5 24.1 0.00 0.00 0.00 28 1003.4
20260503215339 22 307 12.9 24.1 0.00 0.00 0.00 27 1003.4
20260503214838 22 275 12.9 22.5 0.00 0.00 0.00 29 1003.3
20260503214602 22 280 16.1 27.4 0.00 0.00 0.00 31 1003.4
20260503214324 22 298 12.9 27.4 0.00 0.00 0.00 31 1003.4
20260503213338 22 290 11.3 17.7 0.00 0.00 0.00 32 1003.4
20260503212834 22 309 9.7 17.7 0.00 0.00 0.00 32 1003.4
20260503212558 22 265 6.4 17.7 0.00 0.00 0.00 34 1003.4
20260503211834 22 290 6.4 17.7 0.00 0.00 0.00 34 1003.5
20260503211334 22 22 9.7 20.9 0.00 0.00 0.00 32 1003.7
20260503210834 22 343 11.3 20.9 0.00 0.00 0.00 33 1003.7
20260503210334 22 298 9.7 17.7 0.00 0.00 0.00 32 1003.7
20260503205834 22 298 11.3 24.1 0.00 0.00 0.00 31 1003.8
20260503205334 22 295 14.5 24.1 0.00 0.00 0.00 31 1003.8
20260503204834 23 320 11.3 20.9 0.00 0.00 0.00 31 1003.9
20260503204330 23 283 9.7 20.9 0.00 0.00 0.00 34 1003.8
20260503203830 22 317 6.4 20.9 0.00 0.00 0.00 31 1003.9
20260503203330 22 288 6.4 19.3 0.00 0.00 0.00 33 1003.9
20260503203059 23 269 11.3 27.4 0.00 0.00 0.00 31 1004.0
20260503202331 23 304 11.3 27.4 0.00 0.00 0.00 28 1004.0
20260503201831 23 269 11.3 22.5 0.00 0.00 0.00 30 1004.0
20260503201817 23 321 14.5 24.1 0.00 0.00 0.00 31 1004.0
20260503200831 22 304 12.9 24.1 0.00 0.00 0.00 33 1004.0
20260503200331 23 293 12.9 25.7 0.00 0.00 0.00 33 1004.0
20260503200041 23 259 11.3 25.7 0.00 0.00 0.00 34 1004.1
20260503195324 23 279 9.7 16.1 0.00 0.00 0.00 35 1004.1
20260503194825 23 266 8.0 17.7 0.00 0.00 0.00 34 1004.1
20260503194324 23 298 8.0 17.7 0.00 0.00 0.00 34 1004.2
20260503193824 23 270 8.0 16.1 0.00 0.00 0.00 33 1004.2
20260503193324 23 273 11.3 19.3 0.00 0.00 0.00 35 1004.2
20260503192824 23 278 12.9 20.9 0.00 0.00 0.00 33 1004.3
20260503192325 23 296 9.7 20.9 0.00 0.00 0.00 31 1004.2
20260503191826 23 267 8.0 14.5 0.00 0.00 0.00 38 1004.2
20260503191325 23 267 8.0 14.5 0.00 0.00 0.00 35 1004.3
20260503191046 22 282 6.4 14.5 0.00 0.00 0.00 35 1004.4
20260503190324 23 325 6.4 17.7 0.00 0.00 0.00 36 1004.4
20260503185825 22 300 8.0 19.3 0.00 0.00 0.00 35 1004.5
20260503185544 22 328 8.0 19.3 0.00 0.00 0.00 34 1004.5
20260503184818 22 244 9.7 16.1 0.00 0.00 0.00 35 1004.5
20260503184312 22 261 9.7 20.9 0.00 0.00 0.00 35 1004.6
20260503184029 22 308 11.3 20.9 0.00 0.00 0.00 35 1004.6
20260503183300 22 290 8.0 17.7 0.00 0.00 0.00 37 1004.6
20260503183020 22 277 8.0 16.1 0.00 0.00 0.00 37 1004.5
20260503182248 21 242 9.7 14.5 0.00 0.00 0.00 38 1004.6
20260503181741 22 242 8.0 16.1 0.00 0.00 0.00 37 1004.8
20260503181236 22 255 6.4 16.1 0.00 0.00 0.00 34 1004.7
20260503180730 22 291 8.0 16.1 0.00 0.00 0.00 39 1004.8
20260503180224 22 286 9.7 19.3 0.00 0.00 0.00 35 1004.9
20260503175718 22 235 8.0 19.3 0.00 0.00 0.00 37 1004.9
20260503175211 21 290 8.0 16.1 0.00 0.00 0.00 37 1004.9
20260503174929 21 261 8.0 16.1 0.00 0.00 0.00 43 1005.0
20260503174159 20 253 8.0 16.1 0.00 0.00 0.00 37 1005.0
20260503173653 21 259 6.4 12.9 0.00 0.00 0.00 37 1005.1
20260503173147 20 236 6.4 16.1 0.00 0.00 0.00 41 1005.2
20260503172642 21 196 8.0 16.1 0.00 0.00 0.00 34 1005.1
20260503172358 21 292 8.0 19.3 0.00 0.00 0.00 36 1005.1
20260503171629 20 230 8.0 19.3 0.00 0.00 0.00 42 1005.2
20260503171123 21 276 6.4 12.9 0.00 0.00 0.00 43 1005.3
20260503170618 20 217 8.0 12.9 0.00 0.00 0.00 37 1005.3
20260503170112 20 296 6.4 12.9 0.00 0.00 0.00 43 1005.3
20260503150859 17 259 11.3 17.7 0.00 0.00 0.00 41 1005.7
20260503150616 17 237 11.3 17.7 0.00 0.00 0.00 41 1005.8
20260503131258 15 244 9.7 20.9 0.00 0.00 0.00 46 1006.5
20260503130758 15 246 11.3 22.5 0.00 0.00 0.00 46 1006.5
20260503130258 14 228 12.9 22.5 0.00 0.00 0.00 46 1006.4
20260503110751 13 204 11.3 22.5 0.00 0.00 0.00 48 1006.1
20260503110251 13 216 11.3 22.5 0.00 0.00 0.00 48 1006.1
20260503100229 13 287 6.4 11.3 0.00 0.00 0.00 50 1007.0
20260503090116 12 203 4.8 12.9 0.00 0.00 0.00 50 1007.9
20260503081522 12 247 3.2 6.4 0.00 0.00 0.00 49 1008.6
20260503081232 12 291 3.2 12.9 0.00 0.00 0.00 49 1008.7
20260503080511 12 242 3.2 12.9 0.00 0.00 0.00 49 1008.5
20260503072928 12 266 3.2 6.4 0.00 0.00 0.00 48 1008.8
20260503072422 12 266 3.2 6.4 0.00 0.00 0.00 48 1008.9
20260503071917 12 265 3.2 6.4 0.00 0.00 0.00 47 1009.1
20260503071410 12 265 3.2 8.0 0.00 0.00 0.00 47 1009.1
20260503071121 13 238 4.8 9.7 0.00 0.00 0.00 47 1009.2
20260503070359 13 285 4.8 11.3 0.00 0.00 0.00 47 1009.3
20260503060248 12 234 3.2 6.4 0.00 0.00 0.00 46 1009.6
20260503054728 12 238 1.6 4.8 0.00 0.00 0.00 47 1010.0
20260503054223 12 238 1.6 4.8 0.00 0.00 0.00 48 1010.0
20260503053717 12 235 1.6 4.8 0.00 0.00 0.00 49 1010.0
20260503053430 12 250 1.6 4.8 0.00 0.00 0.00 49 1010.0
20260503052705 12 250 1.6 4.8 0.00 0.00 0.00 49 1010.0
20260503052159 12 249 0.0 3.2 0.00 0.00 0.00 50 1010.1
20260503051653 12 248 0.0 3.2 0.00 0.00 0.00 49 1010.1
20260503051146 12 248 1.6 4.8 0.00 0.00 0.00 50 1010.3
20260503050640 12 248 1.6 6.4 0.00 0.00 0.00 50 1010.1
20260503050135 12 249 1.6 6.4 0.00 0.00 0.00 50 1010.3
20260503045629 12 246 1.6 4.8 0.00 0.00 0.00 51 1010.3
20260503045122 11 246 0.0 4.8 0.00 0.00 0.00 51 1010.1
20260503044616 11 245 0.0 3.2 0.00 0.00 0.00 52 1010.3
20260503044111 11 245 0.0 3.2 0.00 0.00 0.00 52 1010.3
20260503043604 11 245 0.0 1.6 0.00 0.00 0.00 53 1010.3
20260503043059 11 245 0.0 1.6 0.00 0.00 0.00 55 1010.4
20260503042552 11 245 0.0 4.8 0.00 0.00 0.00 54 1010.4
20260503042048 11 245 0.0 4.8 0.00 0.00 0.00 54 1010.4
20260503041801 11 244 0.0 3.2 0.00 0.00 0.00 53 1010.5
20260503041034 11 244 0.0 3.2 0.00 0.00 0.00 56 1010.5
20260503040529 11 244 0.0 1.6 0.00 0.00 0.00 55 1010.6
20260503040504 11 244 0.0 0.0 0.00 0.00 0.00 59 1010.6
20260503035517 11 244 0.0 0.0 0.00 0.00 0.00 57 1010.6
20260503035011 11 244 0.0 0.0 0.00 0.00 0.00 57 1010.8
20260503034504 11 244 0.0 0.0 0.00 0.00 0.00 60 1010.8
20260503033959 11 244 0.0 0.0 0.00 0.00 0.00 59 1010.9
20260503033453 11 244 0.0 0.0 0.00 0.00 0.00 59 1011.0
20260503033211 11 244 0.0 1.6 0.00 0.00 0.00 61 1011.0
20260503032441 11 244 0.0 1.6 0.00 0.00 0.00 59 1011.0
20260503031934 11 244 0.0 1.6 0.00 0.00 0.00 58 1011.0
20260503031429 12 244 0.0 3.2 0.00 0.00 0.00 59 1011.1
20260503030923 12 244 0.0 3.2 0.00 0.00 0.00 57 1011.1
20260503030417 11 244 0.0 1.6 0.00 0.00 0.00 59 1011.1
20260503025910 11 244 0.0 4.8 0.00 0.00 0.00 61 1011.3
20260503025405 11 244 0.0 4.8 0.00 0.00 0.00 56 1011.2
20260503024858 11 219 0.0 3.2 0.00 0.00 0.00 59 1011.3
20260503024614 11 219 1.6 3.2 0.00 0.00 0.00 63 1011.4
20260503023846 11 219 0.0 3.2 0.00 0.00 0.00 61 1011.4
20260503023341 12 219 0.0 3.2 0.00 0.00 0.00 60 1011.3
20260503022834 12 219 0.0 3.2 0.00 0.00 0.00 56 1011.4
20260503022329 12 234 0.0 0.0 0.00 0.00 0.00 51 1011.5
20260503021823 12 234 0.0 0.0 0.00 0.00 0.00 57 1011.5
20260503021316 12 234 0.0 0.0 0.00 0.00 0.00 58 1011.5
20260503020811 12 234 0.0 3.2 0.00 0.00 0.00 54 1011.5
20260503020304 13 234 1.6 4.8 0.00 0.00 0.00 55 1011.4
20260503015759 13 234 1.6 4.8 0.00 0.00 0.00 51 1011.4
20260503015731 13 232 1.6 3.2 0.00 0.00 0.00 48 1011.4
20260503014747 14 232 1.6 3.2 0.00 0.00 0.00 49 1011.4
20260503014241 14 248 1.6 6.4 0.00 0.00 0.00 44 1011.4
20260503013734 14 248 3.2 6.4 0.00 0.00 0.00 45 1011.4
20260503013229 13 250 3.2 4.8 0.00 0.00 0.00 46 1011.4
20260503012951 13 265 1.6 4.8 0.00 0.00 0.00 50 1011.4
20260503012218 13 266 0.0 3.2 0.00 0.00 0.00 52 1011.4